Location: *
(2.5500°S, 65.9667°W)
Time: 05:57:02
(UTC+00:00)

Tiros 1 despin weight - Pass Details

Date: 21 April 2024
Orbit: 578 x 621 km, 48.2° (Epoch: 25 May)

Event Time Altitude Azimuth Distance (km) Brightness Sun altitude
Rises 00:52:45 0° 344° (NNW) 2,878 ? -37.2°
Enters shadow 00:53:04 - 346° (NNW) 2,764 ? -37.3°
Reaches altitude 10° 00:55:28 10° 360° (N) 1,974 - -37.9°
Maximum altitude 00:59:00 22° 51° (NE) 1,348 - -38.7°
Drops below altitude 10° 01:02:32 10° 102° (ESE) 1,972 - -39.6°
Sets 01:05:14 0° 117° (ESE) 2,873 - -40.2°
